Weather History for PAKT - September, 2012

Change the Weather History Date:

Monday, September 10, 2012

  Actual Average Record
Temperature  
Mean Temperature 50 °F -  
Max Temperature 55 °F 60 °F 75 °F (1950)
Min Temperature 46 °F 47 °F 36 °F (1970)
Degree Days  
Heating Degree Days 14    
Moisture  
Dew Point 47 °F    
Average Humidity 87    
Maximum Humidity 100    
Minimum Humidity 74    
Precipitation  
Precipitation 0.18 in - - ()
Sea Level Pressure  
Sea Level Pressure 29.93 in    
Wind  
Wind Speed 4 mph (SE)    
Max Wind Speed 10 mph    
Max Gust Speed -    
Visibility 10 miles    
Events Rain    
Averages and records for this station are not official NWS values.
T = Trace of Precipitation, MM = Missing Value Source: NWS Daily Summary

Daily Weather History Graph

Daily Weather History Graph

Search for Another Location

Airport or City:

Trip Planner

Search our weather history database for the weather conditions in past years. The results will help you decide how hot, cold, wet, or windy it might be!

Date:

Astronomy

Sep. 10, 2012 Rise Set
Actual Time 6:10 AM AKDT 7:15 PM AKDT
Civil Twilight 5:33 AM AKDT 7:52 PM AKDT
Nautical Twilight 4:47 AM AKDT 8:37 PM AKDT
Astronomical Twilight 3:57 AM AKDT 9:27 PM AKDT
Moon No Moon Rise 4:30 PM AKDT (9/10)
Length of Visible Light 14h 19m
Length of Day
13h 04m
Waning Crescent, 29% of the Moon is Illuminated
Sep 10
Waning Crescent
Sep 15
New
Sep 22
First Quarter
Sep 29
Full
Oct 7
Last Quarter

Hourly Weather History & Observations

Time (AKDT) Temp. Windchill Dew Point Humidity Pressure Visibility Wind Dir Wind Speed Gust Speed Precip Events Conditions
12:53 AM 46.9 °F - 44.1 °F 90% 29.77 in 10.0 mi South 3.5 mph - 0.00 in   Overcast
1:53 AM 48.0 °F - 45.0 °F 89% 29.78 in 10.0 mi SSE 5.8 mph - N/A   Overcast
2:53 AM 48.0 °F - 45.0 °F 89% 29.79 in 10.0 mi SSE 4.6 mph - 0.05 in Rain Light Rain
3:53 AM 48.0 °F - 45.0 °F 89% 29.80 in 10.0 mi Calm Calm - 0.00 in Rain Light Rain
4:53 AM 48.0 °F - 46.0 °F 93% 29.81 in 10.0 mi South 4.6 mph - 0.02 in Rain Light Rain
5:53 AM 48.0 °F - 46.0 °F 93% 29.81 in 10.0 mi South 4.6 mph - 0.02 in   Overcast
6:12 AM 46.4 °F 44.3 °F 46.4 °F 100% 29.82 in 10.0 mi South 4.6 mph - N/A   Overcast
6:53 AM 48.0 °F - 46.0 °F 93% 29.84 in 10.0 mi SSE 3.5 mph - 0.00 in Rain Light Rain
7:53 AM 48.0 °F - 46.9 °F 96% 29.85 in 10.0 mi South 4.6 mph - 0.06 in Rain Light Rain
8:53 AM 50.0 °F - 48.0 °F 93% 29.87 in 10.0 mi SE 6.9 mph - 0.00 in   Overcast
9:53 AM 51.1 °F - 48.0 °F 89% 29.89 in 10.0 mi East 6.9 mph - 0.01 in   Overcast
10:53 AM 52.0 °F - 46.9 °F 83% 29.91 in 10.0 mi SE 9.2 mph - 0.00 in   Overcast
11:53 AM 53.1 °F - 46.0 °F 77% 29.93 in 10.0 mi ESE 8.1 mph - N/A   Overcast
12:53 PM 53.1 °F - 46.9 °F 80% 29.94 in 10.0 mi SE 4.6 mph - 0.00 in   Overcast
1:53 PM 54.0 °F - 46.9 °F 77% 29.96 in 10.0 mi ESE 10.4 mph - 0.00 in   Overcast
2:53 PM 55.0 °F - 48.9 °F 80% 29.98 in 10.0 mi ESE 5.8 mph - 0.02 in   Mostly Cloudy
3:53 PM 54.0 °F - 48.0 °F 80% 29.99 in 10.0 mi SE 4.6 mph - N/A   Mostly Cloudy
4:53 PM 55.0 °F - 50.0 °F 83% 30.00 in 10.0 mi ESE 8.1 mph - 0.00 in   Overcast
5:53 PM 55.0 °F - 46.9 °F 74% 30.01 in 10.0 mi Calm Calm - N/A   Overcast
6:53 PM 54.0 °F - 46.9 °F 77% 30.02 in 10.0 mi Calm Calm - 0.00 in   Overcast
7:53 PM 52.0 °F - 46.0 °F 80% 30.05 in 10.0 mi Calm Calm - 0.00 in Rain Light Rain
8:53 PM 51.1 °F - 48.0 °F 89% 30.07 in 10.0 mi South 4.6 mph - 0.00 in   Overcast
9:53 PM 50.0 °F - 48.0 °F 93% 30.08 in 10.0 mi Calm Calm - 0.00 in   Overcast
10:53 PM 46.9 °F - 45.0 °F 93% 30.09 in 10.0 mi Calm Calm - N/A   Partly Cloudy
11:53 PM 46.9 °F - 45.0 °F 93% 30.11 in 10.0 mi SE 3.5 mph - N/A   Mostly Cloudy